Location: downtown San Diego
(32.7310°N, 117.1990°W)
Time: 21:18:00
(UTC-07:00)

COSMOS 2455 - Pass Details

Date: 12 July 2018
Orbit: 901 x 909 km, 67.1° (Epoch: 22 July)

Event Time Altitude Azimuth Distance (km) Brightness Sun altitude
Rises 21:35:43 0° 344° (NNW) 3,539 6.9 -17.7°
Reaches altitude 10° 21:38:29 10° 353° (N) 2,594 5.9 -18.1°
Maximum altitude 21:43:54 34° 58° (ENE) 1,440 3.8 -19.0°
Enters shadow 21:46:08 26° 97° (E) 1,690 3.8 -19.3°
